Location: Newark
(45.7425°N, 0.7617°W)
Time: 02:16:07
(UTC+00:00)

N. Korean satellite - Pass Details

Date: 01 February 2020
Orbit: 456 x 505 km, 97.2° (Epoch: 26 February)

Event Time Altitude Azimuth Distance (km) Brightness Sun altitude
Rises 05:50:49 0° 13° (NNE) 2,565 10.3 -16.7°
Reaches altitude 10° 05:52:53 10° 15° (NNE) 1,687 9.4 -16.3°
Maximum altitude 05:56:31 78° 101° (E) 511 6.7 -15.7°
Drops below altitude 10° 06:00:11 10° 189° (S) 1,697 9.3 -15.1°
Sets 06:02:16 0° 191° (S) 2,581 10.2 -14.7°
